STARLINK-1668

Last updated on Fri Nov 06 2020 00:02:03 GMT+0000 (Coordinated Universal Time)

1 46536U 20070E 20310.83334491 -.01083951 00000-0 -20631-1 0 9996 2 46536 53.0000 293.1591 0001113 72.9630 252.9791 15.50488015 5587

Satellite not in orbit